Date String (YYYY-MM-DD hh:mm:ss) UTC,Instrument flags,absolute air pressure of the measurement (hPa),sample flow rate (lpm),inlet stack bypass flow (lpm),air temperature of the measurement (°C),ambient temperature measured by the external sensor (°C),aerosol sample conditioner tube jacket temperature (°C),OPC LED temperature (°C),internal box temperature (°C),relative humidity of the measurement (%),span deviation,mass concentration of particles derived from Lorenz-Mie calculation of OPC scattering (μg/m³),mass concentration of particles derived from Lorenz-Mie calculation of OPC scattering (μg/m³),mass concentration of particles derived from Lorenz-Mie calculation of OPC scattering (μg/m³)
DateTimeUTC,F1_M11,P_M11,Q1_M11,Q2_M11,T1_M11,T2_M11,T3_M11,T4_M11,T5_M11,U1_M11,ZSPAN_M11,X0_M11,X2_M11,X1_M11
2024-01-29 17:00:00,SystemResetWarning,0838.0,5.00,000.00,023.6,023.1,000.0,031.7,025.1,15.4,0000.0,0004.18,0000.94,0000.71
2024-01-29 17:01:00,SystemResetWarning,0838.0,5.00,000.00,023.7,023.1,000.0,031.7,025.2,15.4,0000.0,0003.13,0000.99,0000.72
2024-01-29 17:02:00,SystemResetWarning,0838.0,5.00,000.00,023.7,023.1,000.0,031.8,025.2,15.4,0000.0,0003.09,0001.01,0000.73
2024-01-29 17:03:00,SystemResetWarning,0838.0,4.99,000.00,023.7,023.1,000.0,031.8,025.2,15.3,0000.0,0003.16,0001.05,0000.74
2024-01-29 17:04:00,SystemResetWarning,0838.0,5.00,000.00,023.7,023.1,000.0,031.8,025.2,15.4,0000.0,0003.16,0001.06,0000.75
2024-01-29 17:05:00,SystemResetWarning,0838.0,5.00,000.00,023.7,023.1,000.0,031.8,025.3,15.4,0000.0,0002.70,0001.06,0000.76
2024-01-29 17:06:00,SystemResetWarning,0837.9,5.00,000.00,023.7,023.2,000.0,031.8,025.3,15.3,0000.0,0002.14,0001.08,0000.78
2024-01-29 17:07:00,SystemResetWarning,0837.8,5.00,000.00,023.8,023.2,000.0,031.9,025.3,15.5,0000.0,0002.13,0001.07,0000.78
2024-01-29 17:08:00,SystemResetWarning,0837.8,5.00,000.00,023.8,023.2,000.0,031.9,025.3,15.6,0000.0,0002.21,0001.06,0000.77
2024-01-29 17:09:00,SystemResetWarning,0837.9,5.01,000.00,023.8,023.2,000.0,031.9,025.4,15.5,0000.0,0002.24,0001.06,0000.77
2024-01-29 17:10:00,SystemResetWarning,0837.9,5.00,000.00,023.8,023.2,000.0,031.9,025.4,15.4,0000.0,0001.98,0001.02,0000.75
2024-01-29 17:11:00,SystemResetWarning,0837.8,4.99,000.00,023.8,023.3,000.0,031.9,025.4,15.4,0000.0,0002.06,0000.99,0000.73
2024-01-29 17:12:00,SystemResetWarning,0837.8,4.99,000.00,023.9,023.3,000.0,032.0,025.4,15.6,0000.0,0002.61,0000.93,0000.71
2024-01-29 17:13:00,SystemResetWarning,0837.8,4.99,000.00,023.9,023.3,000.0,032.0,025.5,15.7,0000.0,0002.58,0000.91,0000.69
2024-01-29 17:14:00,SystemResetWarning,0837.8,5.00,000.00,023.9,023.3,000.0,032.0,025.5,15.6,0000.0,0002.53,0000.86,0000.68
2024-01-29 17:15:00,SystemResetWarning,0837.8,5.00,000.00,023.9,023.3,000.0,032.0,025.5,15.4,0000.0,0002.47,0000.83,0000.66
2024-01-29 17:16:00,SystemResetWarning,0837.8,5.00,000.00,023.9,023.4,000.0,032.0,025.5,15.4,0000.0,0002.41,0000.79,0000.63
2024-01-29 17:17:00,SystemResetWarning,0837.8,5.01,000.00,024.0,023.4,000.0,032.1,025.5,15.3,0000.0,0002.34,0000.75,0000.62
2024-01-29 17:18:00,SystemResetWarning,0837.8,5.00,000.00,024.0,023.4,000.0,032.1,025.5,15.3,0000.0,0002.30,0000.73,0000.61
2024-01-29 17:19:00,SystemResetWarning,0837.8,4.99,000.00,024.0,023.4,000.0,032.1,025.6,15.4,0000.0,0002.07,0000.72,0000.62
2024-01-29 17:20:00,SystemResetWarning,0837.8,4.99,000.00,024.0,023.5,000.0,032.1,025.6,15.5,0000.0,0002.06,0000.72,0000.62
2024-01-29 17:21:00,SystemResetWarning,0837.8,5.00,000.00,024.1,023.5,000.0,032.1,025.6,15.4,0000.0,0002.52,0000.73,0000.62
2024-01-29 17:22:00,SystemResetWarning,0837.8,5.00,000.00,024.1,023.5,000.0,032.2,025.6,15.3,0000.0,0002.95,0000.73,0000.62
2024-01-29 17:23:00,SystemResetWarning,0837.8,5.00,000.00,024.1,023.5,000.0,032.2,025.6,15.3,0000.0,0002.21,0000.73,0000.63
2024-01-29 17:24:00,SystemResetWarning,0837.8,5.00,000.00,024.1,023.6,000.0,032.2,025.6,15.2,0000.0,0002.24,0000.75,0000.63
2024-01-29 17:25:00,SystemResetWarning,0837.8,5.00,000.00,024.1,023.6,000.0,032.2,025.6,15.3,0000.0,0002.26,0000.76,0000.63
2024-01-29 17:26:00,SystemResetWarning,0837.8,5.00,000.00,024.2,023.6,000.0,032.2,025.7,15.2,0000.0,0002.27,0000.76,0000.63
2024-01-29 17:27:00,SystemResetWarning,0837.8,5.00,000.00,024.2,023.6,000.0,032.3,025.7,14.8,0000.0,0002.43,0000.76,0000.62
2024-01-29 17:28:00,SystemResetWarning,0837.8,5.00,000.00,024.2,023.6,000.0,032.3,025.7,14.8,0000.0,0002.55,0000.75,0000.61
2024-01-29 17:29:00,SystemResetWarning,0837.8,5.00,000.00,024.2,023.7,000.0,032.3,025.7,14.7,0000.0,0003.21,0000.79,0000.61
2024-01-29 17:30:00,SystemResetWarning,0837.8,5.00,000.00,024.2,023.7,000.0,032.3,025.8,14.6,0000.0,0003.17,0000.76,0000.59
2024-01-29 17:31:00,SystemResetWarning,0837.8,5.00,000.00,024.3,023.7,000.0,032.4,025.8,14.5,0000.0,0003.15,0000.74,0000.58
2024-01-29 17:32:00,SystemResetWarning,0837.8,4.99,000.00,024.3,023.7,000.0,032.4,025.9,14.6,0000.0,0002.77,0000.74,0000.56
2024-01-29 17:33:00,SystemResetWarning,0837.8,4.99,000.00,024.3,023.7,000.0,032.4,025.9,14.4,0000.0,0002.10,0000.74,0000.55
2024-01-29 17:34:00,SystemResetWarning,0837.8,5.00,000.00,024.3,023.7,000.0,032.4,025.9,14.8,0000.0,0002.00,0000.72,0000.53
2024-01-29 17:35:00,SystemResetWarning,0837.8,5.00,000.00,024.3,023.8,000.0,032.4,025.9,14.6,0000.0,0002.00,0000.70,0000.52
2024-01-29 17:36:00,SystemResetWarning,0837.8,5.00,000.00,024.4,023.8,000.0,032.4,025.9,14.6,0000.0,0001.98,0000.70,0000.51
2024-01-29 17:37:00,SystemResetWarning,0837.8,5.00,000.00,024.4,023.8,000.0,032.5,025.9,14.4,0000.0,0001.98,0000.70,0000.51
2024-01-29 17:38:00,SystemResetWarning,0837.8,5.00,000.00,024.4,023.8,000.0,032.5,025.9,14.4,0000.0,0002.05,0000.72,0000.51
2024-01-29 17:39:00,SystemResetWarning,0837.8,5.01,000.00,024.4,023.8,000.0,032.5,025.9,14.2,0000.0,0002.43,0000.73,0000.51
2024-01-29 17:40:00,SystemResetWarning,0837.7,5.01,000.00,024.4,023.9,000.0,032.5,026.0,14.2,0000.0,0002.33,0000.72,0000.51
2024-01-29 17:41:00,SystemResetWarning,0837.7,4.99,000.00,024.4,023.9,000.0,032.5,026.0,14.5,0000.0,0002.73,0000.74,0000.50
2024-01-29 17:42:00,SystemResetWarning,0837.7,5.00,000.00,024.5,023.9,000.0,032.6,026.0,14.4,0000.0,0003.34,0000.74,0000.50
2024-01-29 17:43:00,SystemResetWarning,0837.7,5.00,000.00,024.5,023.9,000.0,032.6,026.0,14.6,0000.0,0003.37,0000.75,0000.49
2024-01-29 17:44:00,SystemResetWarning,0837.8,5.00,000.00,024.5,023.9,000.0,032.6,026.0,14.6,0000.0,0003.35,0000.76,0000.49
2024-01-29 17:45:00,SystemResetWarning,0837.7,5.00,000.00,024.5,023.9,000.0,032.6,026.0,14.5,0000.0,0003.53,0000.77,0000.49
2024-01-29 17:46:00,SystemResetWarning,0837.7,4.99,000.00,024.5,023.9,000.0,032.6,026.1,14.6,0000.0,0003.77,0000.78,0000.50
2024-01-29 17:47:00,SystemResetWarning,0837.8,5.00,000.00,024.5,023.9,000.0,032.7,026.1,14.6,0000.0,0004.05,0000.79,0000.49
2024-01-29 17:48:00,SystemResetWarning,0837.8,5.00,000.00,024.6,024.0,000.0,032.7,026.1,14.6,0000.0,0004.47,0000.79,0000.48
2024-01-29 17:49:00,SystemResetWarning,0837.7,5.00,000.00,024.6,024.0,000.0,032.7,026.2,14.6,0000.0,0004.44,0000.83,0000.48
2024-01-29 17:50:00,SystemResetWarning,0837.7,5.01,000.00,024.6,024.0,000.0,032.7,026.2,14.7,0000.0,0004.18,0000.84,0000.47
2024-01-29 17:51:00,SystemResetWarning,0837.7,4.99,000.00,024.6,024.0,000.0,032.7,026.2,14.6,0000.0,0003.55,0000.83,0000.47
2024-01-29 17:52:00,SystemResetWarning,0837.7,5.00,000.00,024.6,024.0,000.0,032.7,026.2,14.5,0000.0,0003.21,0000.82,0000.46
2024-01-29 17:53:00,SystemResetWarning,0837.7,5.00,000.00,024.7,024.1,000.0,032.8,026.2,14.7,0000.0,0002.94,0000.83,0000.46
2024-01-29 17:54:00,SystemResetWarning,0837.7,5.00,000.00,024.7,024.1,000.0,032.8,026.2,14.5,0000.0,0003.03,0000.83,0000.45
2024-01-29 17:55:00,SystemResetWarning,0837.7,5.01,000.00,024.7,024.1,000.0,032.8,026.2,14.5,0000.0,0002.98,0000.80,0000.45
2024-01-29 17:56:00,SystemResetWarning,0837.7,5.00,000.00,024.7,024.1,000.0,032.8,026.3,14.3,0000.0,0002.77,0000.78,0000.43
2024-01-29 17:57:00,SystemResetWarning,0837.7,5.00,000.00,024.7,024.1,000.0,032.8,026.3,14.1,0000.0,0002.52,0000.75,0000.41
2024-01-29 17:58:00,SystemResetWarning,0837.7,5.00,000.00,024.8,024.2,000.0,032.9,026.3,14.0,0000.0,0002.27,0000.72,0000.40
2024-01-29 17:59:00,SystemResetWarning,0837.7,5.00,000.00,024.8,024.2,000.0,032.9,026.3,14.0,0000.0,0001.89,0000.70,0000.39
